Miscellaneous Local Product
Issued by NWS North Platte, NE

Home | Current Version | Previous Version | Text Only | Print | Product List | Glossary On
Versions: 1 2 3 4 5 6 7 8 9 10 11 12 13 14 15 16 17 18 19 20 21 22 23 24 25 26 27 28 29 30 31 32 33 34 35 36 37 38 39 40 41 42 43 44 45 46 47 48 49 50
000
AXUS43 KLBF 030610
MISLBF


WESTERN AND NORTH CENTRAL NEBRASKA HOURLY WEATHER ROUNDUP
NATIONAL WEATHER SERVICE NORTH PLATTE NE
100 AM CDT FRI JUL 03 2015

***STATIONS NOT REPORTING VARIABLES SUCH AS SKY/WEATHER OR
PRESSURE ARE PROVIDED BY THE NEBRASKA DEPARTMENT OF
ROADS...RAWS...AND APRS NETWORKS...AND ARE NOT UNDER
NATIONAL WEATHER SERVICE QUALITY CONTROL***

...OBSERVATIONS IN AND NEAR THE EASTERN PANHANDLE OF NEBRASKA...

CITY           SKY/WX    TMP DP  RH WIND       PRES   REMARKS
PINE RIDGE     CLEAR     61  57  87 CALM      30.10R
CHADRON        PTCLDY    63  61  93 SW3       30.10S
ALLIANCE       CLEAR     59  57  93 W5        30.12S
SIDNEY         CLEAR     61  58  90 CALM      30.16R
WHITECLAY        N/A     59  56  92 SE3         N/A
CRESCENT LAKE    N/A     65  58  77 NE5         N/A
BIG SPRINGS      N/A     64  61  90 CALM        N/A
$$

...OBSERVATIONS IN NORTH CENTRAL NEBRASKA...

CITY           SKY/WX    TMP DP  RH WIND       PRES   REMARKS
VALENTINE      CLEAR     61  59  93 W5        30.05R
THEDFORD       CLEAR     63  60  93 CALM      30.07S
AINSWORTH      CLEAR     63  62  97 CALM      30.05R
O`NEILL        CLOUDY    66  64  96 CALM      30.04R FOG
ORD            CLOUDY    64  61  90 E5        30.02R
BROKEN BOW     LGT RAIN  61  59  93 CALM      30.04S
VALENTINE NWR    N/A     62  60  93 CALM        N/A
SPRINGVIEW       N/A     60  58  93 CALM        N/A
BREWSTER         N/A     63  61  94 CALM        N/A
ROSE             N/A     75  75  99 SE5         N/A
NEWPORT          N/A     62  61  99 CALM        N/A
SARGENT          N/A     63  62  95 CALM        N/A
CHAMBERS         N/A     64  62  94 CALM        N/A
EWING            N/A     64  62  94 CALM        N/A
$$

...OBSERVATIONS IN SOUTHWEST NEBRASKA AND FAR NORTHEAST COLORADO...

CITY           SKY/WX    TMP DP  RH WIND       PRES   REMARKS
WRAY           FAIR      65  57  76 CALM      30.11S
HOLYOKE        FAIR      63  55  77 E3        30.12S
IMPERIAL       CLEAR     63  58  83 NE3       30.09S
OGALLALA       CLEAR     65  60  85 CALM      30.09S
NORTH PLATTE   CLEAR     62  58  86 SE3       30.06S
MCCOOK         CLEAR     68  59  73 CALM      30.04S
LEXINGTON      CLEAR     64  62  92 CALM      30.04S
PAXTON           N/A     64  59  85 CALM        N/A
GOTHENBURG       N/A     64  56  75 CALM        N/A
CALLAWAY         N/A     61  58  91 CALM        N/A
$$

...NORTH PLATTE AREA...

CITY           SKY/WX    TMP DP  RH WIND       PRES   REMARKS
AIRPORT        CLEAR     62  58  86 SE3       30.06S
DOWNTOWN         N/A     66  60  80 CALM        N/A
HILLCREST        N/A     66  58  76 NE6         N/A
$$

...SOME WEATHER OBSERVATIONS FROM AROUND THE REGION...

CITY           SKY/WX    TMP DP  RH WIND       PRES   REMARKS
DENVER         MOCLDY    62  59  90 SW6       30.23F
LARAMIE        PTCLDY    56  50  80 SE9       30.28F
CHEYENNE       MOCLDY    64  53  67 CALM      30.25F
SCOTTSBLUFF      N/A     68  59  73 VRB3      30.14S
RAPID CITY     MOCLDY    62  58  86 NW6       30.10S
PIERRE         CLEAR     64  63  96 S5        29.99S
WINNER         FAIR      64  59  83 SE5       30.02R
SIOUX FALLS    CLEAR     56  55  97 CALM      30.01S FOG
OMAHA          CLOUDY    64  56  75 E5        29.99S
GRAND ISLAND   CLOUDY    66  64  93 N6        30.01S
KANSAS CITY    CLOUDY    67  66  97 E8        29.95R
WICHITA        PTCLDY    69  66  90 SW3       29.93F
HAYS           CLEAR     70  57  64 N7        29.99S
LIBERAL        PTCLDY    68  63  83 CALM      30.06R
GOODLAND       PTCLDY    65  56  72 E5        30.10S
$$



USA.gov is the U.S. government's official web portal to all federal, state and local government web resources and services.